Dewpoint
66 66 67 67 67 69 68 68 68 67 67 69 69 69 69 68 70 71 69 67 70 68 66 67 68 68 64 63 64 64 63 63 60 59 63 65 71 70 70 70 67 65 62
65 66 67 67 67 66 68 67 68 68 68 69 70 70 70 69 70 70 69 66 67 67 68 67 67 66 69 68 65 65 63 64 64 62 64 65 67 69 69 70 68 65 67
65 66 67 67 67 66 66 67 67 68 68 68 69 70 69 69 71 71 69 68 69 68 68 68 68 67 67 65 67 64 64 66 66 65 64 64 65 67 67 68 67 67 64
63 65 65 67 66 66 66 67 67 68 68 67 68 69 69 67 69 70 70 69 68 68 69 69 68 68 68 69 69 69 69 67 65 66 64 63 63 64 67 64 61 62 64
66 64 65 66 67 67 66 67 68 68 68 68 67 67 68 68 66 68 70 69 69 69 70 70 69 68 69 70 68 68 68 68 65 63 62 62 62 62 64 62 63 62 64
67 66 66 66 66 67 68 68 68 68 68 68 67 66 66 65 65 66 69 69 69 69 69 70 70 69 69 70 70 69 69 69 68 67 63 63 66 66 64 63 63 62 62
60 67 67 67 67 67 68 68 68 68 68 69 68 67 67 67 64 64 67 66 66 67 68 68 69 67 69 69 69 69 68 68 68 69 68 67 67 67 68 68 67 66 66
56 62 67 66 66 67 69 69 68 69 68 68 69 69 69 68 66 64 65 67 67 67 67 68 69 68 67 69 69 67 69 69 70 70 69 69 69 69 70 70 70 70 68
51 55 62 63 68 67 67 68 69 69 69 68 68 69 70 70 66 66 65 65 64 67 68 69 70 70 70 68 68 67 67 67 66 69 69 69 69 69 70 68 64 61 58
48 49 54 62 64 66 67 69 70 70 70 69 68 68 69 69 69 66 65 65 64 62 65 69 69 69 69 68 70 69 67 66 64 63 68 70 69 71 69 71 68 63 58
49 49 52 58 61 62 65 68 70 70 70 70 70 69 69 69 70 67 64 66 64 63 62 60 60 64 67 66 68 70 69 66 62 64 63 63 63 65 69 71 71 68 61
50 51 50 52 59 57 62 64 67 69 70 70 70 69 69 70 69 68 64 64 67 65 64 62 63 63 61 64 65 68 68 67 62 56 55 55 56 57 59 63 70 72 69
48 49 51 50 52 57 59 61 63 66 67 70 71 68 68 68 69 68 65 64 64 66 66 66 65 64 62 61 63 65 65 67 63 57 56 56 56 55 62 65 68 72 73
46 47 48 49 49 53 54 54 58 61 62 63 66 70 69 68 69 68 68 65 62 63 65 66 67 67 66 67 66 64 66 66 64 61 59 57 58 56 57 60 63 63 65
44 45 46 47 48 50 52 52 55 59 62 62 65 66 68 67 67 68 68 68 69 67 66 67 67 66 67 67 66 66 66 66 66 65 63 62 60 58 57 59 61 62 62
43 44 44 46 46 47 48 50 52 58 59 58 58 60 67 67 65 66 66 67 67 67 66 66 66 66 66 66 65 64 65 65 65 65 65 64 62 60 59 59 61 62 62
43 45 46 48 50 49 49 49 49 50 54 55 56 58 59 63 66 64 63 63 65 65 68 68 67 66 66 67 67 67 65 64 66 65 64 64 62 62 61 60 60 62 64
44 44 45 46 49 51 51 50 51 51 51 51 53 56 58 58 58 60 60 60 66 61 68 68 68 67 67 68 68 68 67 67 67 66 66 66 65 63 62 62 62 63 64
43 43 44 45 46 48 49 50 50 51 52 53 53 54 55 57 58 56 55 63 68 68 68 68 69 69 70 70 70 70 70 69 69 68 68 67 67 66 65 64 63 63 64
42 43 45 44 45 48 49 49 49 50 50 52 52 52 53 57 61 64 60 60 67 68 69 69 69 69 70 71 71 71 72 72 71 71 71 71 71 71 69 67 67 66 67
41 42 42 43 44 45 47 48 48 49 52 51 51 53 53 56 59 63 68 66 66 67 69 70 70 71 71 71 72 72 72 72 72 72 72 72 72 71 71 71 71 71 71
42 43 43 44 44 45 47 48 49 51 51 52 52 53 54 56 56 57 59 67 69 69 69 70 71 70 70 72 72 72 72 72 72 72 72 72 72 72 71 71 71 70 69
42 42 43 44 44 45 46 47 48 49 51 51 53 53 54 56 57 58 61 64 67 66 62 62 65 69 65 64 63 65 70 72 73 73 72 72 71 70 69 69 68 68 68
43 43 43 44 45 46 47 47 48 49 50 51 51 53 53 54 55 60 63 57 54 51 51 51 51 52 52 52 51 52 52 53 57 66 71 70 69 68 68 67 67 67 67
39 40 41 41 42 44 46 47 47 49 51 52 53 54 55 58 57 54 51 49 47 46 45 45 46 45 44 44 44 45 45 48 53 57 64 65 66 65 66 66 66 63 63
37 37 39 40 40 41 43 44 46 48 49 50 52 53 54 54 50 48 46 45 44 43 42 42 42 42 42 42 42 42 44 46 47 49 52 52 53 52 52 54 54 51 50
Wind_Speed
19 19 20 20 20 18 17 16 16 15 13 14 13 13 14 13 12 11 8 8 11 10 10 9 10 7 10 7 6 6 6 6 9 8 6 3 7 9 11 11 13 12 7
19 18 20 19 18 19 19 19 17 17 16 14 13 14 15 15 14 13 13 11 11 11 11 11 11 11 10 9 9 8 9 7 10 10 10 10 7 9 10 12 10 12 11
14 16 18 18 20 20 20 19 18 18 18 17 15 13 14 15 16 16 15 13 12 12 11 12 12 12 12 12 9 9 10 10 10 11 12 11 9 10 10 12 10 9 11
13 15 17 18 21 22 21 19 19 19 19 20 18 16 14 15 16 17 16 15 15 14 14 13 13 13 13 12 12 11 10 11 11 12 13 12 11 8 10 13 12 11 10
14 13 16 17 18 19 20 19 20 20 20 21 20 20 18 17 18 19 18 17 17 16 15 15 15 15 14 14 13 13 11 12 13 14 13 13 12 10 10 13 14 13 13
12 12 17 16 16 17 18 20 21 21 21 21 21 22 22 21 20 18 19 18 17 17 16 17 17 15 17 18 20 19 15 14 16 16 16 15 12 13 12 13 14 15 15
17 16 10 16 16 16 17 18 19 22 23 23 24 23 23 23 22 21 25 23 19 19 19 18 19 19 20 18 22 24 22 22 22 19 19 18 17 14 14 14 14 14 15
19 19 19 10 14 15 14 17 19 21 22 23 24 25 24 23 24 26 25 25 23 22 21 21 21 20 19 20 19 19 19 18 19 20 23 23 20 17 16 15 14 15 15
17 20 18 21 10 8 16 17 17 19 22 23 23 24 24 25 24 29 26 25 26 26 24 24 23 23 22 22 22 21 20 20 18 23 23 23 20 20 19 16 18 17 18
18 20 19 18 19 13 17 17 18 19 20 20 23 24 25 26 24 28 29 25 25 26 26 26 27 29 24 24 25 24 23 22 21 21 18 22 23 23 26 21 20 20 19
16 20 22 22 18 17 19 19 16 20 21 21 20 22 23 23 25 25 30 27 26 26 28 27 28 32 37 32 29 26 25 21 21 21 22 22 21 20 19 19 20 22 21
19 16 18 23 17 18 18 18 18 18 22 22 21 22 23 24 24 22 28 34 26 26 27 26 25 23 30 36 33 31 29 22 24 25 24 24 23 21 20 19 19 20 20
22 23 17 20 20 18 19 17 16 20 20 21 19 22 22 22 22 27 27 31 34 31 26 24 21 14 16 23 32 33 30 25 28 27 27 26 24 23 18 17 14 14 18
24 23 24 19 20 20 20 19 17 17 21 17 19 21 22 20 22 23 22 21 28 24 29 30 26 22 19 20 19 22 23 25 25 26 26 25 23 23 22 21 21 21 21
24 24 23 22 22 21 20 21 19 16 21 17 19 18 21 24 23 23 21 20 19 20 21 21 24 25 25 26 25 25 22 22 26 26 24 24 24 23 23 21 22 22 22
25 23 22 22 20 21 20 22 23 25 25 28 34 29 26 24 22 14 14 19 16 8 14 20 25 26 27 25 25 25 25 26 24 23 24 25 24 24 24 23 23 24 23
23 25 22 22 23 21 21 21 24 22 24 27 32 33 34 36 32 25 16 15 18 16 17 22 25 27 27 25 23 24 25 24 21 24 24 24 23 23 23 24 23 23 22
21 23 24 24 19 21 22 24 22 24 23 23 19 28 28 30 32 32 24 11 15 13 18 21 25 25 24 20 22 23 23 23 24 24 24 23 23 23 23 24 24 24 24
22 21 21 22 22 22 23 24 25 26 26 25 23 21 20 24 20 14 12 17 25 25 22 25 23 22 19 19 18 22 23 23 22 23 22 23 22 22 24 24 24 25 23
22 26 24 24 23 22 21 25 26 26 28 25 25 24 19 11 15 13 12 15 19 24 22 25 22 23 22 22 21 21 20 19 20 22 21 22 21 21 23 23 23 23 23
21 21 24 23 24 23 24 25 26 24 22 26 27 24 23 19 20 17 15 14 17 20 22 23 23 21 19 20 22 22 22 24 20 19 20 20 20 20 20 20 18 19 18
23 23 23 22 22 22 22 21 22 24 25 24 27 25 27 22 24 24 22 16 18 17 18 20 20 22 25 21 19 22 24 23 21 21 21 20 20 20 18 18 16 14 14
22 23 24 23 23 24 24 24 24 23 25 26 26 25 24 21 20 20 21 18 6 6 3 5 9 9 7 3 2 6 16 19 19 19 20 20 18 18 17 17 16 16 17
20 21 22 22 22 22 24 24 23 25 26 27 26 26 25 23 25 18 9 6 3 0 1 2 1 3 3 2 3 5 8 10 9 11 15 16 16 18 19 18 17 19 18
17 18 19 20 21 21 22 24 25 23 22 24 25 25 23 13 7 4 4 4 4 4 3 4 4 5 8 7 4 4 7 7 6 6 4 5 9 11 13 11 12 3 5
15 16 13 13 14 16 18 20 21 21 21 22 22 22 19 14 8 6 6 7 8 9 8 8 8 9 10 10 9 12 13 14 13 13 9 9 9 8 8 12 14 13 15
Wind_Direction
213 218 216 214 215 216 216 228 232 236 227 222 213 214 207 206 205 208 224 205 208 215 234 223 226 237 251 234 238 255 265 263 279 292 316 289 317 312 321 325 310 304 331
221 217 220 221 219 217 220 216 229 230 231 227 216 217 218 211 209 207 212 209 214 221 223 225 230 224 226 245 250 254 274 284 277 284 291 291 291 312 306 307 312 316 336
211 225 224 221 221 224 223 223 216 226 228 228 221 222 222 221 212 211 215 219 217 224 227 224 228 227 228 250 235 255 235 234 243 262 282 281 292 291 307 290 297 308 288
225 227 229 225 227 228 224 221 221 221 229 227 226 225 225 228 222 223 214 220 226 228 231 229 230 228 230 231 237 242 254 267 258 260 269 277 275 291 280 292 309 314 324
313 259 227 235 234 237 234 225 222 222 225 232 230 229 228 229 227 224 226 220 224 229 230 229 230 232 227 234 242 227 255 244 255 262 266 271 273 285 309 306 302 311 306
338 292 287 248 235 233 232 234 233 226 227 230 231 229 229 230 230 219 228 231 231 233 235 230 236 219 232 230 234 249 259 254 258 273 277 277 289 278 278 293 306 305 305
342 330 287 267 259 244 241 235 233 234 233 228 231 228 227 229 232 222 213 234 237 234 238 238 233 231 217 232 230 235 244 246 248 258 264 269 282 280 282 283 281 293 291
342 345 347 273 252 259 250 247 245 241 237 234 232 231 229 227 226 222 219 227 239 245 240 239 238 243 230 224 236 233 232 234 231 241 245 257 260 262 264 268 275 281 275
341 339 336 331 310 280 263 258 248 246 242 238 237 236 230 232 221 218 217 231 237 240 242 239 240 238 238 225 232 240 243 246 240 226 240 251 255 261 263 277 270 272 275
335 325 322 315 318 357 296 274 259 249 243 246 241 238 238 238 225 219 213 228 235 237 234 236 237 239 238 225 227 237 244 245 250 260 234 249 254 252 251 244 252 257 266
326 324 323 318 326 323 305 280 261 251 244 239 242 247 242 237 239 220 215 225 233 234 239 240 237 226 228 233 224 236 241 246 249 249 255 257 256 246 238 221 232 246 260
318 318 317 315 306 305 293 297 291 263 248 242 242 241 244 240 236 230 216 220 234 240 244 243 243 236 222 224 224 234 241 244 249 255 256 256 256 253 252 241 224 225 247
314 309 305 305 294 287 283 286 292 279 255 247 239 242 243 246 239 223 219 219 226 235 248 254 261 263 237 224 226 228 231 241 247 248 248 250 250 254 259 256 249 245 245
302 300 298 294 296 293 290 280 274 279 275 250 248 245 249 245 247 244 214 219 227 227 239 253 260 261 263 256 237 231 234 236 236 240 244 248 250 250 246 242 251 250 242
292 292 290 285 286 281 280 278 275 263 274 291 285 254 242 247 245 247 250 227 217 219 229 235 242 239 241 242 238 240 229 227 233 239 244 245 246 247 246 245 250 250 251
289 284 282 285 278 274 275 282 269 253 259 275 276 274 278 270 280 289 251 243 246 199 212 237 240 238 237 235 234 232 230 233 231 230 237 240 244 243 244 243 245 247 250
280 282 277 281 278 273 273 273 277 276 256 254 256 260 258 257 269 272 273 264 238 208 227 244 245 243 240 239 236 238 240 233 231 236 238 236 240 241 242 246 245 245 245
276 275 273 269 263 270 266 269 272 275 272 271 262 250 254 253 255 260 257 240 248 234 233 235 246 251 246 243 243 242 241 240 235 236 235 237 240 243 243 243 243 244 249
268 264 266 269 265 258 263 262 265 267 268 269 275 269 257 251 263 265 209 227 233 229 224 232 236 248 253 248 241 244 246 246 245 245 240 238 236 237 243 245 246 245 249
277 271 261 262 261 262 256 255 255 255 260 262 265 267 273 266 258 248 224 228 232 228 232 233 231 236 240 250 246 244 246 239 234 236 246 246 241 249 251 251 251 252 248
272 267 259 259 259 256 255 255 258 257 253 259 260 262 269 269 268 270 246 235 241 243 234 233 235 234 231 234 236 239 239 244 242 238 242 243 238 234 235 237 242 244 252
273 264 262 256 252 252 253 253 252 252 254 255 258 260 267 258 261 261 260 248 246 241 247 256 243 240 246 238 237 242 244 240 236 233 235 235 231 231 232 230 227 226 232
275 269 262 255 251 250 251 249 251 250 253 255 258 257 256 259 255 256 262 267 251 209 225 239 255 257 274 286 308 269 256 247 244 238 236 232 227 225 218 220 221 221 220
280 270 267 264 257 249 245 245 246 247 250 253 251 252 251 254 259 255 258 251 211 338 44 342 295 241 273 358 333 311 285 289 298 291 234 229 224 223 219 213 213 217 218
310 291 277 272 264 258 255 251 251 251 253 248 247 252 254 279 285 245 226 206 144 127 86 71 35 52 68 63 41 13 349 332 284 289 231 231 235 225 220 214 209 179 184
324 326 314 298 281 271 265 262 258 255 253 253 256 259 258 249 233 212 188 174 141 118 107 95 97 91 83 78 85 96 91 80 73 68 76 84 110 99 96 114 111 102 98